SPAWAR-CAL-O

Satellite information

Favourite Embed

Satellite Type and Status

PAYLOADIN ORBIT

Key statistics

Satellite SPAWAR-CAL-O at a glance.

Uptime

2568

Days in orbit

Revolutions

≈ 15.3

Per day

Orbit

SSO

Sun Synchronous Orbit

Inclination

97.5

Latest

Satellite identification and parameters

Extended collection of information and parameters for SPAWAR-CAL-O.

Object identification

Identified? True

Debris? False

Object name: SPAWAR-CAL-O

International designator: 2018-099J

Object number (NORAD): 43766

Object ID (CCSDS): 43766

Country: UNITED STATES OF AMERICA (US)

Current information (Y/N): Y

RCS size: SMALL

Orbital parameters

Period: 94.272 minutes

Inclination: 97.463 deg

SMA: 6861.453 km

Apoapsis: 489.097 km

Periapsis: 477.539 km

RAAN: 44.2828 deg

Eccentricy: 0.0008423

Argument of periapsis: 231.7333 deg

Mean anomaly: 128.3149 deg

Mean motion: 15.2749086 rev/day

Mean motion (dot): 0.00025597 rev/day2

B* drag term: 0.00095126929 1/REarth

Two-line elements (TLE)

Creation date: Dec. 12, 2025, 10:14 a.m.

Reference frame: TEME

Reference center: EARTH

Epoch: Dec. 12, 2025, 3:10 a.m. UTC

TLE line 0: 0 SPAWAR-CAL-O

TLE line 1: 1 43766U 18099J 25346.13202684 .00025597 00000-0 95127-3 0 9994

TLE line 2: 2 43766 97.4630 44.2828 0008423 231.7333 128.3149 15.27490860384896

Live tracking on map

Real-time ground track for satellite SPAWAR-CAL-O.

In-orbit conjunctions

There are no conjunctions computed for SPAWAR-CAL-O, at the moment. Check back to stay up to date, as we update our databases every day.

Go to all conjunctions

Associated space launch

Dedicated rideshare launching payloads into sun-synchronous orbit. Payloads include ORS-6, EU:CROPIS, STPSat-5, BlackSky Global-1 to -4, HawkEye Pathfinder 1-3, Iceye, NEXTSat-1, 2 SkySats, Centauri II, and a Flock of Doves.

SPAWAR-CAL-O was lifted into orbit during the mission ‘Falcon 9 Block 5 | Spaceflight SSO-A’, on board a Falcon 9 space rocket.

The launch took place on Dec. 3, 2018, 6:34 p.m. from Space Launch Complex 4E.

For more information about the launch, click the button.

Launch to space Falcon 9 Block 5 | Spaceflight SSO-A
Falcon 9 Block 5 | Spaceflight SSO-A

Agency: N/A

Status: Launch Successful

Launch date: Dec. 3, 2018, 6:34 p.m. UTC

Rocket: Falcon 9

Launch pad: Space Launch Complex 4E

Location: Vandenberg SFB, CA, USA

...

Latest news about this satellite

There are no fresh news available about this satellite. Check back as we update our databases every day.


Newsletter sign-up

Weekly statistics, charts and insights to help you stay on top of the space industry.